Regional Weather Roundup
Issued by NWS Columbia, SC

Home | Current Version | Previous Version | Text Only | Print | Product List | Glossary On
Versions: 1 2 3 4 5 6 7 8 9 10 11 12 13 14 15 16 17 18 19 20 21 22 23 24 25 26 27 28 29 30 31 32 33 34 35 36 37 38 39 40 41 42 43 44 45 46 47 48 49 50
000
ASUS42 KCAE 310610
RWRCAE
REGIONAL WEATHER ROUNDUP
NATIONAL WEATHER SERVICE COLUMBIA SC
200 AM EDT THU JUL 31 2014

NOTE: "FAIR" INDICATES FEW OR NO CLOUDS BELOW 12,000 FEET WITH NO
SIGNIFICANT WEATHER AND/OR OBSTRUCTIONS TO VISIBILITY.

NOT ALL STATIONS ARE QUALITY CONTROLLED BY THE NATIONAL
WEATHER SERVICE. USE DATA WITH CAUTION...ESPECIALLY
DEWPOINT OBSERVATIONS.

SCZ001>056-GAZ040-063>065-077-310700-
...UPSTATE SOUTH CAROLINA...

CITY           SKY/WX    TMP DP  RH WIND       PRES   REMARKS
ANDERSON       MOCLDY    72  62  71 NE3       30.07S
6HR MIN TEMP:  72; 6HR MAX TEMP:  80;

LIBERTY        MOCLDY    67  51  55 MISG      30.08F
6HR MIN TEMP:  56; 6HR MAX TEMP:  91;

SPARTANBURG    FAIR      72  64  78 CALM      30.08S
CLEMSON        MOCLDY    72  61  68 N5        30.09F
6HR MIN TEMP:  72; 6HR MAX TEMP:  81;

GREENVILLE     CLOUDY    71  59  65 N9        30.09F
6HR MIN TEMP:  70; 6HR MAX TEMP:  78;

GREENWOOD      CLOUDY    74  66  76 SE3       30.07F
6HR MIN TEMP:  74; 6HR MAX TEMP:  81; 6HR PCP: TRACE;

GREER          CLOUDY    71  63  75 NE5       30.08S
6HR MIN TEMP:  70; 6HR MAX TEMP:  77;

ROCK HILL      MOCLDY    68  66  93 CALM      30.09S
6HR MIN TEMP:  68; 6HR MAX TEMP:  76;

CHESTER        FAIR      72  68  88 CALM      30.08S
LAURENS        MOCLDY    73  64  73 CALM      30.07F


...CENTRAL SOUTH CAROLINA...

CITY           SKY/WX    TMP DP  RH WIND       PRES   REMARKS
COLUMBIA APT   PTCLDY    75  66  73 CALM      30.04F
6HR MIN TEMP:  75; 6HR MAX TEMP:  79;

COLUMBIA OWENS PTCLDY    73  68  84 CALM      30.05F
6HR MIN TEMP:  73; 6HR MAX TEMP:  78;

DARLINGTON     CLOUDY    73  66  78 NE5       30.08S
6HR MIN TEMP:  73; 6HR MAX TEMP:  79;

FLORENCE       MOCLDY    72  68  87 NE5       30.06F
6HR MIN TEMP:  72; 6HR MAX TEMP:  80;

MCENTIRE ANGB  PTCLDY    71  68  90 NE6       30.05F
6HR MIN TEMP:  71; 6HR MAX TEMP:  75;

ORANGEBURG     MOCLDY    73  68  84 NE6       30.04S
6HR MIN TEMP:  73; 6HR MAX TEMP:  76;

SUMTER SHAW    PTCLDY    70  68  96 NE6       30.03F
6HR MIN TEMP:  69; 6HR MAX TEMP:  77;

NEWBERRY       HVY RAIN  70  70 100 E7        30.09S
AIKEN          FAIR      70  70 100 NE5       30.08S
BARNWELL       MOCLDY    73  70  88 NE3       30.03F
MANNING        MOCLDY    72 N/A N/A CALM      30.04F
CAMDEN         FAIR      68  66  94 CALM      30.07F
LANCASTER      FAIR      66  66 100 CALM      30.08R
WINNSBORO      FAIR      70  68  94 NE5       30.06F


...EASTERN AND COASTAL SOUTH CAROLINA...

CITY           SKY/WX    TMP DP  RH WIND       PRES   REMARKS
MYRTLE BEACH   MOCLDY    81  66  61 E10       30.04S
6HR MIN TEMP:  79; 6HR MAX TEMP:  81;

N MYRTLE BCH   MOCLDY    75  67  76 CALM      30.04S
6HR MIN TEMP:  73; 6HR MAX TEMP:  81;

CONWAY         CLOUDY    72  72 100 CALM      30.05S
MARION         FAIR      70  68  94 CALM      30.06F
HARTSVILLE     CLOUDY    72  63  73 E3        30.07F
FLORENCE       MOCLDY    72  68  87 NE5       30.06F
6HR MIN TEMP:  72; 6HR MAX TEMP:  80;

DARLINGTON     CLOUDY    73  66  78 NE5       30.08S
6HR MIN TEMP:  73; 6HR MAX TEMP:  79;

CHARLESTON APT MOCLDY    77  71  82 NE3       30.02S
6HR MIN TEMP:  76; 6HR MAX TEMP:  83;

MOUNT PLEASANT FAIR      77  72  83 E3        30.01F
WALTERBORO     CLOUDY    73 N/A N/A NE5       30.02F
BEAUFORT       CLOUDY    83  74  74 S7        30.00S
6HR MIN TEMP:  80; 6HR MAX TEMP:  83;



...EASTERN GEORGIA...

CITY           SKY/WX    TMP DP  RH WIND       PRES   REMARKS
AUGUSTA BUSH F PTCLDY    71  67  87 CALM      30.02F
6HR MIN TEMP:  71; 6HR MAX TEMP:  81;

AUGUSTA DANIEL PTCLDY    76  67  73 NE6       30.04F
6HR MIN TEMP:  76; 6HR MAX TEMP:  84;

THOMSON        MOCLDY    74  72  92 CALM      30.08S
6HR MIN TEMP:  74; 6HR MAX TEMP:  82;

WASHINGTON     FAIR      77  73  88 CALM      30.04F
CLAXTON        FAIR      73  73 100 CALM      30.00F
SYLVANIA       MOCLDY    73  73  98 CALM      30.02F
6HR MIN TEMP:  73; 6HR MAX TEMP:  76;

STATESBORO     PTCLDY    74  71  90 E3        30.00F
6HR MIN TEMP:  74; 6HR MAX TEMP:  80;

SAVANNAH       PTCLDY    76  71  85 NE7       30.00S
6HR MIN TEMP:  76; 6HR MAX TEMP:  80;



...SOUTHERN NORTH CAROLINA...

CITY           SKY/WX    TMP DP  RH WIND       PRES   REMARKS
CHARLOTTE      CLOUDY    70  64  81 CALM      30.09S
6HR MIN TEMP:  68; 6HR MAX TEMP:  79;

MONROE         MOCLDY    68  63  84 NE3       30.07S
6HR MIN TEMP:  68; 6HR MAX TEMP:  78;

WADESBORO      CLOUDY    71  67  84 CALM      30.08S
6HR MIN TEMP:  71; 6HR MAX TEMP:  79;

ROCKINGHAM       N/A     70  70 100 NE3       30.08S
RUTHERFORDTON  MOCLDY    65  61  86 NW8       30.11S
6HR MIN TEMP:  65; 6HR MAX TEMP:  74;

ASHEVILLE      MOCLDY    61  57  87 CALM      30.16S
6HR MIN TEMP:  61; 6HR MAX TEMP:  70;


$$



USA.gov is the U.S. government's official web portal to all federal, state and local government web resources and services.